Change the Weather History Date:

Wednesday, October 3, 2012

  Actual Average Record
Temperature  
Mean Temperature 62 °F -  
Max Temperature 84 °F 66 °F 84 °F (2012)
Min Temperature 41 °F 39 °F 33 °F (1999)
Degree Days  
Heating Degree Days 2    
Growing Degree Days 12 (Base 50)    
Moisture  
Dew Point 29 °F    
Average Humidity 33    
Maximum Humidity 57    
Minimum Humidity 11    
Precipitation  
Precipitation 0.00 in - - ()
Sea Level Pressure  
Sea Level Pressure 30.00 in    
Wind  
Wind Speed 10 mph (NNW)    
Max Wind Speed 32 mph    
Max Gust Speed 41 mph    
Visibility 10 miles    
Events      
Averages and records for this station are not official NWS values.
T = Trace of Precipitation, MM = Missing Value Source: NWS Daily Summary

Daily Weather History Graph

Daily Weather History Graph

Search for Another Location

Airport or City:

Trip Planner

Search our weather history database for the weather conditions in past years. The results will help you decide how hot, cold, wet, or windy it might be!

Date:

Astronomy

Oct. 03, 2012 Rise Set
Actual Time 6:59 AM MDT 6:38 PM MDT
Civil Twilight 6:31 AM MDT 7:05 PM MDT
Nautical Twilight 6:00 AM MDT 7:36 PM MDT
Astronomical Twilight 5:28 AM MDT 8:08 PM MDT
Moon 8:31 PM MDT (10/3) 10:25 AM MDT (10/3)
Length of Visible Light 12h 33m
Length of Day
11h 38m
Waning Gibbous, 88% of the Moon is Illuminated
Oct 3
Waning Gibbous
Oct 8
Last Quarter
Oct 15
New
Oct 21
First Quarter
Oct 29
Full

Hourly Weather History & Observations

Time (MDT) Temp. Windchill Dew Point Humidity Pressure Visibility Wind Dir Wind Speed Gust Speed Precip Events Conditions
12:15 AM 57.2 °F - 32.0 °F 38% 29.91 in 10.0 mi WSW 4.6 mph - N/A   Clear
12:55 AM 55.4 °F - 32.0 °F 41% 29.90 in 10.0 mi SE 4.6 mph - N/A   Clear
1:15 AM 60.8 °F - 30.2 °F 31% 29.90 in 10.0 mi Calm Calm - N/A   Clear
1:35 AM 57.2 °F - 30.2 °F 36% 29.91 in 10.0 mi NE 6.9 mph - N/A   Clear
1:55 AM 60.8 °F - 30.2 °F 31% 29.92 in 10.0 mi NNE 5.8 mph - N/A   Clear
2:15 AM 59.0 °F - 32.0 °F 36% 29.92 in 10.0 mi North 6.9 mph - N/A   Clear
2:35 AM 59.0 °F - 32.0 °F 36% 29.91 in 10.0 mi North 6.9 mph - N/A   Clear
2:55 AM 59.0 °F - 30.2 °F 34% 29.91 in 10.0 mi NNW 5.8 mph - N/A   Clear
3:15 AM 59.0 °F - 30.2 °F 34% 29.92 in 10.0 mi NNW 4.6 mph - N/A   Clear
3:35 AM 55.4 °F - 30.2 °F 38% 29.92 in 10.0 mi North 12.7 mph - N/A   Clear
3:55 AM 55.4 °F - 32.0 °F 41% 29.92 in 10.0 mi North 10.4 mph - N/A   Clear
4:15 AM 53.6 °F - 32.0 °F 44% 29.92 in 10.0 mi North 8.1 mph - N/A   Clear
4:35 AM 53.6 °F - 32.0 °F 44% 29.93 in 10.0 mi North 6.9 mph - N/A   Clear
4:55 AM 51.8 °F - 30.2 °F 44% 29.93 in 10.0 mi NNW 5.8 mph - N/A   Clear
5:15 AM 55.4 °F - 32.0 °F 41% 29.93 in 10.0 mi South 5.8 mph - N/A   Clear
5:35 AM 53.6 °F - 35.6 °F 51% 29.92 in 10.0 mi South 4.6 mph - N/A   Clear
5:55 AM 51.8 °F - 35.6 °F 54% 29.92 in 10.0 mi SSW 8.1 mph - N/A   Clear
6:15 AM 57.2 °F - 32.0 °F 38% 29.92 in 10.0 mi SW 11.5 mph - N/A   Clear
9:35 AM 66.2 °F - 37.4 °F 35% 29.92 in 10.0 mi Calm Calm - N/A   Clear
9:55 AM 69.8 °F - 39.2 °F 33% 29.92 in 10.0 mi Calm Calm - N/A   Clear
10:15 AM 75.2 °F - 33.8 °F 22% 29.91 in 10.0 mi South 10.4 mph - N/A   Clear
10:35 AM 75.2 °F - 33.8 °F 22% 29.91 in 10.0 mi South 11.5 mph - N/A   Clear
10:55 AM 77.0 °F - 33.8 °F 21% 29.91 in 10.0 mi Calm Calm - N/A   Clear
11:15 AM 78.8 °F - 32.0 °F 18% 29.90 in 10.0 mi NW 4.6 mph - N/A   Clear
11:35 AM 78.8 °F - 30.2 °F 17% 29.89 in 10.0 mi West 4.6 mph - N/A   Clear
11:55 AM 80.6 °F - 30.2 °F 16% 29.89 in 10.0 mi NNE 4.6 mph - N/A   Partly Cloudy
12:15 PM 80.6 °F - 30.2 °F 16% 29.89 in 10.0 mi WNW 8.1 mph 17.3 mph N/A   Partly Cloudy
12:35 PM 80.6 °F - 28.4 °F 15% 29.88 in 10.0 mi West 11.5 mph 17.3 mph N/A   Clear
12:55 PM 82.4 °F - 28.4 °F 14% 29.87 in 10.0 mi West 15.0 mph 18.4 mph N/A   Clear
1:15 PM 82.4 °F - 26.6 °F 13% 29.86 in 10.0 mi NW 24.2 mph 33.4 mph N/A   Clear
1:35 PM 82.4 °F - 26.6 °F 13% 29.86 in 10.0 mi NW 16.1 mph 23.0 mph N/A   Clear
1:55 PM 84.2 °F - 24.8 °F 11% 29.85 in 10.0 mi WSW 16.1 mph 29.9 mph N/A   Clear
2:15 PM 80.6 °F - 23.0 °F 12% 29.86 in 10.0 mi West 9.2 mph - N/A   Clear
2:35 PM 80.6 °F - 21.2 °F 11% 29.86 in 10.0 mi WNW 17.3 mph - N/A   Clear
2:55 PM 84.2 °F - 24.8 °F 11% 29.86 in 10.0 mi NW 15.0 mph 24.2 mph N/A   Clear
3:15 PM 82.4 °F - 24.8 °F 12% 29.86 in 10.0 mi WNW 16.1 mph - N/A   Clear
3:35 PM 82.4 °F - 24.8 °F 12% 29.86 in 10.0 mi West 15.0 mph 20.7 mph N/A   Clear
3:55 PM 82.4 °F - 24.8 °F 12% 29.86 in 10.0 mi West 16.1 mph 21.9 mph N/A   Clear
4:15 PM 80.6 °F - 23.0 °F 12% 29.87 in 10.0 mi West 17.3 mph 23.0 mph N/A   Clear
4:35 PM 77.0 °F - 24.8 °F 14% 29.92 in 10.0 mi NNE 24.2 mph 31.1 mph N/A   Clear
5:15 PM 60.8 °F - 33.8 °F 36% 30.00 in 10.0 mi NNE 23.0 mph 33.4 mph N/A   Clear
5:35 PM 59.0 °F - 32.0 °F 36% 30.04 in 10.0 mi NNE 24.2 mph 33.4 mph N/A   Clear
5:55 PM 55.4 °F - 30.2 °F 38% 30.06 in 10.0 mi NNE 25.3 mph 33.4 mph N/A   Clear
6:15 PM 53.6 °F - 32.0 °F 44% 30.10 in 10.0 mi NNE 26.5 mph 36.8 mph N/A   Clear
6:35 PM - - - N/A% 30.10 in 10.0 mi North 31.1 mph 38.0 mph N/A   Clear
7:15 PM 44.6 °F 34.4 °F 28.4 °F 53% 30.18 in 10.0 mi NNE 32.2 mph 41.4 mph N/A   Clear
7:35 PM 44.6 °F 36.1 °F 30.2 °F 57% 30.23 in 10.0 mi North 21.9 mph 28.8 mph N/A   Clear
7:55 PM 44.6 °F 34.7 °F 28.4 °F 53% 30.24 in 10.0 mi North 29.9 mph 36.8 mph N/A   Partly Cloudy
8:55 PM 42.8 °F 33.1 °F 24.8 °F 49% 30.29 in 10.0 mi North 25.3 mph 38.0 mph N/A   Clear
9:15 PM 41.0 °F 31.9 °F 24.8 °F 53% 30.32 in 10.0 mi North 19.6 mph 34.5 mph N/A   Clear
9:55 PM 41.0 °F 32.2 °F 24.8 °F 53% 30.35 in 10.0 mi North 18.4 mph 23.0 mph N/A   Overcast
10:15 PM 41.0 °F 32.8 °F 24.8 °F 53% 30.36 in 10.0 mi North 16.1 mph - N/A   Overcast
10:35 PM 41.0 °F 33.5 °F 24.8 °F 53% 30.36 in 10.0 mi North 13.8 mph 17.3 mph N/A   Overcast
10:55 PM 41.0 °F 33.5 °F 24.8 °F 53% 30.36 in 10.0 mi North 13.8 mph - N/A   Overcast
11:15 PM 41.0 °F 33.9 °F 24.8 °F 53% 30.37 in 10.0 mi North 12.7 mph - N/A   Overcast
11:35 PM 41.0 °F 34.3 °F 24.8 °F 53% 30.37 in 10.0 mi North 11.5 mph - N/A   Overcast
11:55 PM 41.0 °F 33.9 °F 24.8 °F 53% 30.37 in 10.0 mi North 12.7 mph - N/A   Overcast